Columbia Owens, SC

2:13 PM EST on December 07, 2019 (GMT -0500)
Columbia Owens Downtown

Weather History for KCUB - November, 2019

Change the Weather History Date:

Tuesday, November 12, 2019

  Actual Average Record
Temperature  
Mean Temperature 46 °F 57 °F  
Max Temperature 59 °F 69 °F 79 °F (2003)
Min Temperature 33 °F 45 °F 31 °F (2011)
Degree Days  
Heating Degree Days 19 8  
Month to date heating degree days 128 87  
Since 1 July heating degree days 156 176  
Cooling Degree Days 0 0  
Month to date cooling degree days 0 11  
Year to date cooling degree days 2833 2253  
Moisture  
Dew Point 44 °F    
Average Humidity 82    
Maximum Humidity 87    
Minimum Humidity 64    
Precipitation  
Precipitation 0.36 in 0.09 in 1.18 in (2018)
Month to date precipitation 0.95 1.15  
Year to date precipitation 28.68 40.36  
Sea Level Pressure  
Sea Level Pressure 30.00 in    
Wind  
Wind Speed 3 mph (North)    
Max Wind Speed 12 mph    
Max Gust Speed 21 mph    
Visibility 8 miles    
Events Rain    
T = Trace of Precipitation, MM = Missing Value Source: NWS Daily Summary

Daily Weather History Graph

Daily Weather History Graph

Search for Another Location

Airport or City:

Astronomy

Nov. 12, 2019 Rise Set
Actual Time 6:53 AM EST 5:22 PM EST
Civil Twilight 6:26 AM EST 5:48 PM EST
Nautical Twilight 5:56 AM EST 6:18 PM EST
Astronomical Twilight 5:27 AM EST 6:48 PM EST
Moon 5:47 PM EST (11/12) 6:45 AM EST (11/12)
Length of Visible Light 11h 21m
Length of Day
10h 29m
Full, 100% of the Moon is Illuminated
Nov 12
Full
Nov 19
Last Quarter
Nov 26
New
Dec 4
First Quarter
Dec 12
Full

Hourly Weather History & Observations

Time (EST) Temp. Windchill Dew Point Humidity Pressure Visibility Wind Dir Wind Speed Gust Speed Precip Events Conditions
12:53 AM 52.0 °F - 45.0 °F 77% 30.01 in 10.0 mi Calm Calm - N/A   Clear
3:53 AM 54.0 °F - 48.0 °F 80% 29.92 in 10.0 mi Calm Calm - N/A   Mostly Cloudy
4:53 AM 54.0 °F - 48.0 °F 80% 29.90 in 10.0 mi Calm Calm - N/A   Mostly Cloudy
5:53 AM 54.0 °F - 48.9 °F 83% 29.88 in 10.0 mi Calm Calm - N/A   Mostly Cloudy
6:53 AM 55.0 °F - 50.0 °F 83% 29.88 in 10.0 mi Calm Calm - N/A   Mostly Cloudy
7:53 AM 57.0 °F - 51.1 °F 81% 29.90 in 10.0 mi Calm Calm - N/A   Overcast
8:53 AM 57.0 °F - 54.0 °F 89% 29.93 in 10.0 mi Calm Calm - 0.00 in Rain Light Rain
10:07 AM 59.0 °F - 55.0 °F 87% 29.93 in 4.0 mi Calm Calm - 0.02 in Rain Light Rain
10:41 AM 57.9 °F - 54.0 °F 87% 29.93 in 2.5 mi Calm Calm - 0.03 in Rain Light Rain
10:53 AM 57.0 °F - 54.0 °F 89% 29.93 in 1.2 mi NNW 4.6 mph - 0.06 in Rain Rain
11:48 AM 57.2 °F - 53.6 °F 88% 29.93 in 1.8 mi Variable 4.6 mph - 0.13 in Rain Rain
11:53 AM 57.0 °F - 54.0 °F 89% 29.93 in 2.0 mi Variable 4.6 mph - 0.14 in Rain Rain
12:05 PM 57.0 °F - 54.0 °F 89% 29.93 in 3.0 mi Variable 3.5 mph - 0.01 in Rain Light Rain
12:27 PM 55.9 °F - 53.1 °F 90% 29.93 in 2.0 mi Variable 3.5 mph - 0.06 in Rain Rain
12:30 PM 55.9 °F - 53.1 °F 90% 29.93 in 1.8 mi Variable 3.5 mph - 0.06 in Rain Rain
12:40 PM 55.9 °F - 53.1 °F 90% 29.92 in 2.5 mi NNE 6.9 mph - 0.08 in Rain Rain
12:53 PM 55.0 °F - 52.0 °F 89% 29.92 in 4.0 mi NNW 10.4 mph 19.6 mph 0.10 in Rain Rain
1:02 PM 53.1 °F - 48.9 °F 86% 29.93 in 5.0 mi NNW 9.2 mph 19.6 mph 0.02 in Rain Light Rain
1:37 PM 50.0 °F - 46.0 °F 86% 29.95 in 10.0 mi NNW 8.1 mph 17.3 mph 0.03 in Rain Light Rain
1:41 PM 50.0 °F - 46.0 °F 86% 29.95 in 10.0 mi Variable 4.6 mph 17.3 mph 0.03 in Rain Light Rain
1:53 PM 48.9 °F - 45.0 °F 86% 29.96 in 10.0 mi North 8.1 mph 18.4 mph 0.04 in Rain Light Rain
2:08 PM 48.0 °F - 44.1 °F 86% 29.97 in 6.0 mi North 9.2 mph - 0.01 in Rain Rain
2:51 PM 46.0 °F 43.9 °F 41.0 °F 83% 30.00 in 10.0 mi Variable 4.6 mph - 0.01 in Rain Light Rain
3:24 PM 45.0 °F - 41.0 °F 86% 30.02 in 7.0 mi North - - 0.00 in   Overcast
3:38 PM 45.0 °F 42.6 °F 39.9 °F 82% 30.02 in 10.0 mi Variable 4.6 mph - 0.00 in   Overcast
3:53 PM 45.0 °F 41.8 °F 39.9 °F 82% 30.03 in 10.0 mi Variable 5.8 mph - 0.00 in   Overcast
4:02 PM 45.0 °F 41.8 °F 39.9 °F 82% 30.03 in 10.0 mi ENE 5.8 mph - N/A   Overcast
4:30 PM 44.1 °F 39.0 °F 36.0 °F 73% 30.05 in 10.0 mi NNE 9.2 mph - N/A   Overcast
4:53 PM 44.1 °F 40.8 °F 36.0 °F 73% 30.06 in 10.0 mi Variable 5.8 mph - N/A   Overcast
5:53 PM 44.1 °F 40.8 °F 37.0 °F 76% 30.09 in 10.0 mi Variable 5.8 mph - N/A   Overcast
6:53 PM 42.1 °F 39.2 °F 35.1 °F 76% 30.12 in 10.0 mi Variable 4.6 mph - N/A   Partly Cloudy
7:53 PM 39.9 °F - 34.0 °F 79% 30.16 in 10.0 mi Calm Calm - N/A   Clear
8:53 PM 39.9 °F 35.1 °F 32.0 °F 73% 30.19 in 10.0 mi Variable 6.9 mph - N/A   Clear
9:53 PM 37.9 °F 33.5 °F 27.0 °F 65% 30.24 in 10.0 mi Variable 5.8 mph - N/A   Clear
10:53 PM 35.1 °F 29.3 °F 24.1 °F 64% 30.25 in 10.0 mi Variable 6.9 mph - N/A   Clear
11:53 PM 33.1 °F 26.9 °F 19.0 °F 56% 30.27 in 10.0 mi Variable 6.9 mph - N/A   Clear